Das Wetter in  D-61279 Heinzenberg / Taunus





Wetter Minimum- & Maximum-Werte im Juli 2009

Standort: Heinzenberg / Taunus - Höhe 297 m         8° 24' 1" Ost 50° 21' 51" Nord
(   3-stündige Aktualisierung    letzte Aktualisierung um 20:46 am 31.07.2009  )


Messgrösse

Minimum

Maximum

Durchschnitt

Temperatur West /
Luftfeuchte West
Anklicken für Monats-Diagramm

8,8 °C

05:44
26.07.2009

35 %

17:06
28.07.2009

30,6 °C

17:41
02.07.2009

97 %

06:25
22.07.2009

Temp

18,2 °C

Feuchte

74 %

Temperatur Ost /
Luftfeuchte Ost
Anklicken für Monats-Diagramm

9,1 °C

05:59
26.07.2009

--

--
--

32,9 °C

17:41
02.07.2009

--

--
--

17,8 °C

--

Luftdruck Anklicken für Monats-Diagramm

1003,1 hPa

08:06
23.07.2009

1026,1 hPa

06:19
31.07.2009

1014,7 hPa

Taupunkt

7,3 °C

14:22
30.07.2009

20,0 °C

16:15
01.07.2009

13,1 °C

Windchill
( gefühlte Temperatur )

4,0 °C

14:57
08.07.2009

30,6 °C

17:41
02.07.2009

16,3 °C

Windgeschwindigkeit /
Windrichtung
Anklicken für Monats-Diagramm

---

62,6 km/h / W-SW

17:55
06.07.2009

10,5 km/h
W-SW

Helligkeit /
Sonnenschein
Anklicken für Monats-Diagramm
Anklicken für Monats-Diagramm

Sonnenschein:

202:38 Stunden

Max: 10:55 Std am
28.07.2009

129 klux

12:52
08.07.2009

39 klux

Solarstrahlung Anklicken für Monats-Diagramm

---

882 W/m²

12:52
08.07.2009

285 W/m²

Regenmenge
    Juli 2009
Anklicken für Monats-Diagramm

Insgesamt 98,2 l/m²

in 48:09 Stunden
an 21 Tagen

21,6 l/m²

21:26
23.07.2009

Gesamtmenge

98,2 l/m²

Regen-Tage
    Juli 2009
Anklicken für Monats-Diagramm

>   0 mm/Tag

>   2 mm/Tag

>   5 mm/Tag

> 10 mm/Tag

> 20 mm/Tag

21 Tage     
10 Tage     
6 Tage     
4 Tage     
  1 Tag     

Eisige Tage Juli 2009 / 2008

Tmin ≤ -10°C     

0 Tage

/

0 Tage

Eistage Juli 2009 / 2008

Tmax <     0°C     

0 Tage

/

0 Tage

Frosttage Juli 2009 / 2008

Tmin ≤     0°C     

0 Tage

/

0 Tage

Kalte Tage Juli 2009 / 2008

Tmax <   10°C     

0 Tage

/

0 Tage

Warme Tage Juli 2009 / 2008

Tmax ≥   20°C     

27 Tage

/

27 Tage

Sommertage Juli 2009 / 2008

Tmax ≥   25°C     

14 Tage

/

14 Tage

Heisse Tage Juli 2009 / 2008

Tmax ≥   30°C     

  1 Tag

/

5 Tage


Monatsdiagramm Juli 2009

Die Kurven zeigen den Durchschnittswert des jeweiligen Tages an


Wetter-Monatsübersicht Juli 2009
Datum
  Temperatur
   Luftdruck
   Wind
  Regen
   Luftfeuchte
   Helligkeit

Sonnen-
schein

Ø
Temp.

Min.
Temp.

Max.
Temp.

Ø
Luftdruck

Min.
Luftdruck

Max.
Luftdruck

Ø-Geschw.
Haupt-Richtg.

Max.
Wind

Menge /
Dauer

Ø
Feuchte

Min.
Feuchte

Max.
Feuchte

Ø
Helligkeit

Max.
Helligkeit

1.
Juli
21,8 °C15,1 °C
06:15
29,7 °C
16:15
1020,1 hPa1017,8 hPa
18:25
1021,4 hPa
06:15
3,8 km/h
NW
20,6 km/h
15:35  
---
74 %52 %
16:35
91 %
07:55
47,4 klux104,0 klux
13:15
9:45 Std 
2.
Juli
22,7 °C15,8 °C
06:21
30,6 °C
17:41
1017,2 hPa1013,4 hPa
17:41
1020,2 hPa
04:26
3,8 km/h
NO
19,1 km/h
12:51  
---
70 %48 %
16:36
89 %
07:51
49 klux111 klux
13:31
10:10 Std 
3.
Juli
20,8 °C16,0 °C
06:32
28,6 °C
14:02
1013,5 hPa1011,6 hPa
14:02
1015,7 hPa
00:47
3,4 km/h
W
24,9 km/h
18:57  
15,2 l/m²
45 Minuten
77 %55 %
14:02
88 %
08:02
39 klux109 klux
13:57
6:50 Std 
4.
Juli
21,2 °C16,5 °C
03:53
27,5 °C
17:43
1012,7 hPa1010,7 hPa
17:43
1014,0 hPa
03:53
7,2 km/h
NW
28,5 km/h
13:23  
---
71 %43 %
18:23
91 %
06:48
48 klux108 klux
12:08
10:10 Std 
5.
Juli
21,1 °C12,9 °C
06:09
29,8 °C
17:49
1010,7 hPa1007,4 hPa
17:59
1013,4 hPa
06:09
2,7 km/h
W
20,3 km/h
15:39  
---
66 %40 %
16:04
87 %
07:09
48 klux121 klux
12:09
10:30 Std 
6.
Juli
19,3 °C15,8 °C
23:40
25,6 °C
12:55
1008,9 hPa1006,8 hPa
17:10
1009,8 hPa
04:50
3,2 km/h
W-SW
62,6 km/h
17:55  
2,3 l/m²
1:45 Stunden
75 %45 %
12:55
89 %
23:40
34 klux112 klux
13:30
4:45 Std 
7.
Juli
16,8 °C13,9 °C
06:00
22,4 °C
16:35
1007,5 hPa1005,0 hPa
16:35
1009,1 hPa
04:10
14,9 km/h
W-SW
43,0 km/h
16:19  
---
30 Minuten
74 %45 %
16:40
90 %
06:10
35 klux119 klux
12:25
4:29 Std 
8.
Juli
14,4 °C12,4 °C
06:17
17,5 °C
14:02
1009,2 hPa1007,1 hPa
03:32
1013,3 hPa
23:23
19,3 km/h
W-SW
38,2 km/h
14:57  
7,0 l/m²
7:15 Stunden
83 %69 %
00:02
90 %
12:47
23 klux129 klux
12:52
1:45 Std 
9.
Juli
14,8 °C10,8 °C
05:08
21,8 °C
17:08
1014,0 hPa1012,3 hPa
17:08
1015,5 hPa
08:58
17,2 km/h
W
40,9 km/h
19:43  
---
45 Minuten
73 %45 %
16:38
88 %
04:58
38 klux126 klux
12:08
4:41 Std 
10.
Juli
13,1 °C10,8 °C
03:14
16,5 °C
15:49
1014,9 hPa1013,4 hPa
08:59
1017,6 hPa
23:00
17,6 km/h
W-SW
36,4 km/h
16:34  
---
1:05 Stunden
76 %63 %
16:19
82 %
03:34
19 klux103 klux
11:54
30 Min 
11.
Juli
14,9 °C11,6 °C
05:05
19,7 °C
14:20
1016,2 hPa1014,8 hPa
14:45
1017,7 hPa
02:30
12,4 km/h
W-SW
33,7 km/h
12:05  
0,3 l/m²
2:35 Stunden
76 %54 %
12:05
85 %
03:45
29 klux118 klux
11:55
2:50 Std 
12.
Juli
16,0 °C10,8 °C
05:21
20,5 °C
18:16
1012,7 hPa1010,4 hPa
18:16
1015,6 hPa
03:01
9,4 km/h
W-SW
36,5 km/h
11:56  
---
5 Minuten
80 %70 %
18:06
90 %
07:36
21 klux76 klux
09:46
1:11 Std 
13.
Juli
19,9 °C13,5 °C
04:37
27,8 °C
17:02
1012,5 hPa1010,2 hPa
20:27
1013,8 hPa
09:12
7,6 km/h
W-SW
30,1 km/h
14:57  
0,3 l/m²
1:40 Stunden
71 %44 %
17:02
91 %
07:32
47,8 klux110,0 klux
14:02
8:00 Std 
14.
Juli
20,2 °C17,0 °C
05:23
24,5 °C
14:58
1012,3 hPa1010,7 hPa
02:53
1013,6 hPa
23:44
8,5 km/h
W-SW
23,0 km/h
17:58  
15,2 l/m²
5:00 Stunden
84 %70 %
14:23
91 %
05:03
27 klux126 klux
13:18
3:10 Std 
15.
Juli
21,4 °C16,9 °C
23:55
27,0 °C
15:59
1017,2 hPa1013,6 hPa
00:09
1021,2 hPa
23:55
13,5 km/h
W-SW
33,3 km/h
14:24  
---
70 %48 %
16:59
85 %
00:14
44 klux111 klux
13:09
7:25 Std 
16.
Juli
20,2 °C12,1 °C
06:15
29,3 °C
17:55
1021,0 hPa1016,8 hPa
22:31
1023,9 hPa
06:15
4,0 km/h
W-SW
24,8 km/h
14:10  
---
67 %36 %
17:25
93 %
07:15
49 klux117 klux
13:15
10:25 Std 
17.
Juli
17,1 °C14,0 °C
05:31
22,7 °C
15:31
1011,5 hPa1009,5 hPa
16:41
1017,1 hPa
00:21
10,8 km/h
W-SW
56,5 km/h
08:06  
4,1 l/m²
3:15 Stunden
84 %55 %
15:36
94 %
09:21
24 klux118 klux
13:01
1:50 Std 
18.
Juli
14,6 °C12,7 °C
06:17
17,9 °C
13:27
1011,4 hPa1009,1 hPa
03:12
1014,3 hPa
23:28
15,8 km/h
W-SW
35,1 km/h
13:27  
2,4 l/m²
2:00 Stunden
84 %66 %
14:17
93 %
15:37
24 klux118 klux
11:37
3:00 Std 
19.
Juli
15,3 °C12,0 °C
06:18
20,5 °C
15:18
1015,1 hPa1013,6 hPa
15:03
1018,6 hPa
23:39
15,8 km/h
W-SW
44,9 km/h
13:33  
4,7 l/m²
4:20 Stunden
82 %57 %
15:23
95 %
07:43
38 klux117 klux
12:53
5:30 Std 
20.
Juli
16,5 °C11,5 °C
02:09
22,0 °C
18:04
1017,1 hPa1016,3 hPa
07:59
1018,7 hPa
01:34
12,6 km/h
W-SW
35,0 km/h
14:39  
0,2 l/m²
40 Minuten
72 %46 %
15:59
90 %
02:14
34 klux122 klux
13:49
4:15 Std 
21.
Juli
20,2 °C13,1 °C
04:15
28,2 °C
15:59
1013,7 hPa1008,0 hPa
23:45
1018,5 hPa
01:29
7,2 km/h
SO
27,8 km/h
15:54  
0,2 l/m²
1:35 Stunden
70 %44 %
15:54
93 %
07:19
46 klux109 klux
13:24
7:55 Std 
22.
Juli
21,8 °C16,8 °C
04:25
28,3 °C
18:20
1008,2 hPa1004,9 hPa
21:10
1010,5 hPa
10:50
13,2 km/h
W-SW
48,6 km/h
02:40  
16,9 l/m²
3:54 Stunden
75 %49 %
16:55
97 %
06:25
39 klux116 klux
13:25
6:21 Std 
23.
Juli
20,6 °C17,0 °C
23:12
24,4 °C
18:31
1005,5 hPa1003,1 hPa
08:06
1010,8 hPa
23:52
13,4 km/h
W-SW
42,1 km/h
09:41  
21,6 l/m²
4:46 Stunden
78 %59 %
18:41
96 %
23:52
32 klux115 klux
11:31
3:40 Std 
24.
Juli
18,1 °C15,1 °C
05:42
23,5 °C
17:12
1013,5 hPa1010,8 hPa
00:07
1017,2 hPa
23:58
18,4 km/h
W-SW
42,3 km/h
12:12  
5,3 l/m²
1:30 Stunden
76 %43 %
17:27
97 %
02:22
44 klux121 klux
13:02
7:41 Std 
25.
Juli
15,7 °C12,8 °C
06:28
21,3 °C
17:33
1021,1 hPa1017,2 hPa
00:03
1024,8 hPa
23:59
18,3 km/h
W
40,4 km/h
13:48  
1,1 l/m²
2:34 Stunden
78 %53 %
17:28
90 %
23:44
38 klux115 klux
13:23
6:45 Std 
26.
Juli
16,7 °C8,8 °C
05:44
23,9 °C
18:54
1022,2 hPa1017,8 hPa
21:04
1025,3 hPa
05:44
4,0 km/h
W-SW
19,8 km/h
13:04  
---
74 %47 %
17:34
97 %
07:59
48 klux118 klux
12:19
10:20 Std 
27.
Juli
18,4 °C10,4 °C
06:00
28,0 °C
16:10
1014,2 hPa1010,6 hPa
16:10
1018,5 hPa
01:55
10,7 km/h
W-SW
48,5 km/h
19:10  
1,1 l/m²
1:25 Stunden
72 %39 %
13:20
94 %
08:00
47 klux100 klux
15:35
9:05 Std 
28.
Juli
17,5 °C11,7 °C
06:36
25,3 °C
18:51
1020,6 hPa1016,1 hPa
00:01
1022,6 hPa
23:22
8,3 km/h
W
27,6 km/h
13:11  
---
69 %35 %
17:06
92 %
00:01
51 klux112 klux
11:56
10:55 Std 
29.
Juli
18,4 °C9,2 °C
05:47
27,0 °C
17:42
1018,2 hPa1012,9 hPa
23:57
1022,9 hPa
01:22
6,8 km/h
SO
27,9 km/h
14:27  
---
67 %36 %
17:07
92 %
07:17
49 klux103 klux
12:57
10:05 Std 
30.
Juli
18,4 °C14,3 °C
23:59
22,5 °C
16:57
1018,6 hPa1011,9 hPa
00:42
1023,6 hPa
23:59
19,0 km/h
W
46,0 km/h
11:07  
0,5 l/m²
45 Minuten
65 %41 %
16:37
92 %
06:12
46 klux105 klux
13:57
10:10 Std 
31.
Juli
16,4 °C10,2 °C
05:54
24,3 °C
18:14
1023,2 hPa1020,3 hPa
18:14
1026,1 hPa
06:19
2,3 km/h
SO
15,7 km/h
18:54  
---
65 %37 %
18:24
87 %
07:39
44 klux109 klux
14:19
8:30 Std 



Juli
2009

Temperatur

  

Luftdruck

  

Wind

  

Regen

  

Luftfeuchte

  

Helligkeit

Sonnen-
schein

Ø

Min

Max

Ø

Min

Max

Ø

Max

Max

Ø

Min

Max

Ø

Max

Max

18,2 °C

8,8 °C

05:44 Uhr
26.07.2009

30,6 °C

17:41 Uhr
02.07.2009

1014,7 hPa

1003,1 hPa

08:06 Uhr
23.07.2009

1026,1 hPa

06:19 Uhr
31.07.2009

10,5 km/h

W-SW

62,6 km/h

17:55 Uhr
06.07.2009

21,6 l/m²

4:46 Stunden
23.07.2009

74 %

35 %

17:06 Uhr
28.07.2009

97 %

06:25 Uhr
22.07.2009

39 klux

129,0 klux

12:52 Uhr
08.07.2009

10:55 Std

am
28.07.2009

Gesamt

Gesamt

98,2 l/m²

21 Tage
48:09 h

202:38 Std


Wetter-Diagramme Juli 2009     Heinzenberg / Taunus   
TemperaturLuftfeuchte
SolarstrahlungLuftdruck
HelligkeitSonnenschein
RegenmengeRegendauer
Wind-GeschwindigkeitWind-Richtung